Regional Weather Roundup
Issued by NWS San Diego, CA

Home | Current Version | Previous Version | Text Only | Print | Product List | Glossary On
Versions: 1 2 3 4 5 6 7 8 9 10 11 12 13 14 15 16 17 18 19 20 21 22 23 24 25 26 27 28 29 30 31 32 33 34 35 36 37 38 39 40 41 42 43 44 45 46 47 48 49 50
000
ASUS46 KSGX 201310
RWRSGX

SAN DIEGO HOURLY WEATHER ROUNDUP
NATIONAL WEATHER SERVICE SAN DIEGO CA
500 AM PST SAT DEC 20 2014

NOTE: "FAIR" INDICATES FEW OR NO CLOUDS BELOW 12,000 FEET WITH NO
SIGNIFICANT WEATHER AND/OR OBSTRUCTIONS TO VISIBILITY.

CAZ042-043-060-061-PZZ750-775-201400-

GREATER SAN DIEGO AREA

CITY           SKY/WX    TMP DP  RH WIND       PRES   REMARKS
LINDBERGH FLD  PTCLDY    53  47  79 CALM      30.16R
POINT LOMA       N/A     53  50  90 NE3         N/A
NATIONAL CITY    N/A     51  48  90 CALM      30.15S
CHULA VISTA      N/A     48  47  96 CALM      30.08S
IMPERIAL BEACH CLEAR     52  49  89 NE6       30.15R
BROWN FIELD    CLEAR     48  45  89 SE6       30.14S
MIRAMAR MCAS   PTCLDY    49  44  83 NE6       30.14R
MONTGOMERY FLD CLEAR     49  46  90 NE3       30.14S

$$

NORTH SAN DIEGO COUNTY

CITY           SKY/WX    TMP DP  RH WIND       PRES   REMARKS
CAMP PENDLETON PTCLDY    43  40  89 CALM      30.14F FOG
OCEANSIDE AP   PTCLDY    46  44  93 CALM      30.14S
OCEANSIDE HBR    N/A     49  46  90 E9        30.16F
VISTA            N/A     53  49  87 CALM      30.13S
CARLSBAD       PTCLDY    50  46  86 NE5       30.13S
DEL MAR          N/A     50  49  95 CALM      30.16S
LA JOLLA SCRIP   N/A     53  50  90 CALM      30.12R
FALLBROOK        N/A     49  48  97 CALM      30.17R
ESCONDIDO        N/A     46  43  88 CALM      30.17S
SAN MARCOS       N/A     49  46  88 CALM      30.13S
POWAY            N/A     44  42  91 CALM      30.18R

$$

EAST SAN DIEGO COUNTY

CITY           SKY/WX    TMP DP  RH WIND       PRES   REMARKS
RAMONA         CLEAR     39  38  96 CALM      30.15R FOG
SANTEE LAKES     N/A     47  45  94 CALM      30.17S
LA MESA          N/A     49  45  86 E2        30.09S
JAMUL            N/A     45  43  94 CALM      30.16R
DESCANSO N       N/A     36  30  80 E6        30.08R WCI  31
MT. LAGUNA OBS   N/A     45   5  19 CALM      29.71F
CAMPO            N/A     35  32  88 NE3       30.10S

$$

ORANGE COUNTY AND THE LOS ANGELES BASIN

CITY           SKY/WX    TMP DP  RH WIND       PRES   REMARKS
JOHN WAYNE AP  CLEAR     54  46  74 CALM      30.13F
LAGUNA BEACH     N/A     49  48  94 NW6       30.09F
LAKE FOREST FR   N/A     49  40  73 CALM      30.05F
SANTA ANA        N/A     47  45  91 CALM      30.08F
HUNTINGTON BCH   N/A     47  46  96 CALM      30.15F
LOS ALAMITOS   FAIR      49  48  97 CALM      30.14F
FULLERTON      CLEAR     50  46  86 E3        30.13F
LONG BEACH     PTCLDY    51  49  92 CALM      30.14F
L.A. AP        MOCLDY    51  48  89 CALM      30.14F
L.A. DOWNTOWN  MOCLDY    51  47  86 CALM      30.14F

$$

THE INLAND EMPIRE

CITY           SKY/WX    TMP DP  RH WIND       PRES   REMARKS
CORONA         CLEAR     40  40 100 CALM      30.14F FOG
CHINO          CLEAR     46  45  96 E3        30.15S FOG
ONTARIO        PTCLDY    47  42  83 CALM      30.13F
RIVERSIDE AP   CLEAR     46  43  89 E3        30.13F FOG
RIV CYN CREST    N/A     47  47 100 SE1         N/A
MORENO VALLEY    N/A     46  46  99 CALM      29.31F
MARCH ARB      PTCLDY    42  42 100 CALM      30.13S
HORSETHIEF CYN   N/A     46  39  79 CALM      30.14F
PERRIS           N/A     45  44  97 CALM      30.17R
MENIFEE          N/A     42  41  97 CALM      30.23F
HEMET EAST       N/A     46  35  67 CALM      30.15R
FRENCH VALLEY  FAIR      43  41  93 CALM      30.14S
TEMECULA         N/A     43  42  97 CALM      30.12R

$$

SAN BERNARDINO AND RIVERSIDE COUNTY MOUNTAINS

CITY           SKY/WX    TMP DP  RH WIND       PRES   REMARKS
BIG BEAR AP    PTCLDY    25  23  93 W3        30.16F
ANGELUS OAKS     N/A     37  29  72 CALM      30.14F
PINE COVE        N/A     38  21  49 N3        30.16S

$$

SOUTHERN DESERT INCLUDING THE COACHELLA VALLEY

CITY           SKY/WX    TMP DP  RH WIND       PRES   REMARKS
PALM SPRINGS   PTCLDY    48  41  76 CALM      30.13S
THOUSAND PALMS   N/A     46  40  81 S1        30.08F
PALM DESERT      N/A     44  41  88 CALM      30.46S
THERMAL        CLEAR     40  35  83 CALM      30.10F
BLYTHE         CLEAR     43  42  97 NE6       30.12S
IMPERIAL AP    CLEAR     44  41  89 CALM      30.11S
EL CENTRO NAS  CLEAR     44  40  85 SW5       30.11F
YUMA AZ        CLEAR     47  40  76 NE5       30.10F

$$

UPPER DESERT

CITY           SKY/WX    TMP DP  RH WIND       PRES   REMARKS
VICTORVILLE AP PTCLDY    39  36  87 S6        30.12F WCI  35
HESPERIA         N/A     39  34  82 W3        30.29F
APPLE VALLEY     N/A     36  33  87 CALM      30.19F
PALMDALE       PTCLDY    40  38  93 W5        30.13F
LANCASTER      MOCLDY    39  36  89 SW3       30.13F
EDWARDS AFB    MOCLDY    39  38  99 N2        30.12S
DAGGETT        PTCLDY    37  34  89 NW6       30.13F WCI  32
29 PALMS N     CLEAR     39  34  82 NW5       30.19F
NEEDLES        CLEAR     45  39  79 W7        30.13F

$$

REGIONAL REPORTS

CITY           SKY/WX    TMP DP  RH WIND       PRES   REMARKS
SANTA BARBARA  PTCLDY    47  45  93 CALM      30.13F
SANDBERG       PTCLDY    48  38  68 NW10      30.15S
MT. WILSON       N/A     41  32  70 MISG        N/A
LAS VEGAS NV   PTCLDY    42  35  76 SW7       30.13R
PHOENIX AZ     MOCLDY    47  40  76 E5        30.09F
TIJUANA        PTCLDY    50  45  81 CALM      30.16R
ENSENADA NW      N/A     54  32  43 CALM      30.11S

$$

OFFSHORE ISLANDS

CITY           SKY/WX    TMP DP  RH WIND       PRES   REMARKS
CATALINA ARPT  PTCLDY    50  49  96 W12       30.15S
SAN NICOLAS IS CLOUDY   N/A N/A N/A W9        30.14F

$$

MARINE AND OFFSHORE BUOY REPORTS

STATION/POSITION SKY/WX   TEMP    WIND        PRES    SWELL
                          AIR SEA DIR/SP/G            HT/PER/DIR
                          (F)     (DEG/KT/KT) (MB)    (FT/S/D)
TANNER BANKS               62 64  290/  8/ 10 1020.9F   7/300/19
S CLEMENTE BASIN           61 65  320/ 10/ 12 1020.2F   5/290/13
SAN NICOLAS IS.               63                N/A     8/310/20
SO. S. ROSA ISLA           61 62  280/ 10/ 14 1019.9F   8/19
W. S. BARBARA CH           60 63  310/  4/  8 1020.1F  10/300/19
S. MONICA BASIN            61 64  270/  6/  8 1020.9F   3/230/13
S PEDRO CHANNEL               64                N/A     2/250/12
DANA POINT                    64                N/A     2/280/12
CMP PENDLETON NS              64                N/A     2/240/12
OCEANSIDE OFFSHR              64                N/A     2/240/13
TORREY PINES OTR              65                N/A     3/280/13
LA JOLLA 1                 56 64  110/  1/  2 1020.7S
MISSION BAY BUOY              64                N/A     2/260/13
SAN DIEGO BAY                 64              1021.3R
POINT LOMA SOUTH              65                N/A     3/250/13

$$



USA.gov is the U.S. government's official web portal to all federal, state and local government web resources and services.